CZ-3 R/B

基本信息
目录编号:
29517
目录名称:
CZ-3 R/B
国际标识:
2006-048B
轨道中心:
EARTH
物体状态:
在轨
发射日期:
2006-10-28 UTC
国别:
中国 (CN)
轨道信息
数据来源: 国际轨道数据
星历时间: 2026-07-14T03:17:57+0800
半长轴: 11655.79km
偏心率: 0.4040313
轨道倾角: 28.236°
近地点辐角: 12.807°
升交点赤经: 48.495°
平近点角: 355.019°
近地点: 568.349km
远地点: 9986.957km
周期: 208.724分钟
每日圈数: 6.899065
详细信息
发射场:
XSC
轨道高度:
LEO
数据来源:
AOE Integration Group
参考系:
TEME
时间系统:
UTC
历元类型:
SGP4
2D轨道图
3D轨道图
轨道高度分析图
轨道倾角分析图
轨道综合分析图
查看轨道综合分析图